Location: Prairie Dale
(45.6972°N, 104.5033°W)
Time: 19:51:16
(UTC+00:00)

EO-79 - Pass Details

Date: 02 July 2022
Orbit: 588 x 603 km, 98.0° (Epoch: 11 August)

Event Time Altitude Azimuth Distance (km) Brightness Sun altitude
Rises 07:34:50 0° 30° (NNE) 2,856 ? -20.9°
Reaches altitude 10° 07:37:46 10° 52° (NE) 1,950 ? -20.8°
Maximum altitude 07:40:25 16° 91° (E) 1,586 ? -20.7°
Enters shadow 07:41:54 14° 115° (ESE) 1,708 ? -20.7°
